FW3916 Weather Reports


Display with metric or nautical units.
time (UTC)temp
F
wind
direction
speed
MPH
gust
MPH
rain 1hr
in
rain 24hr
in
rain mn
in
humidity
%
barometer
mb
20260905163102 88 17 4.0 10.0 0.00 0.00 0.00 51 1014.5
20260905162543 88 199 4.0 6.0 0.00 0.00 0.00 51 1014.4
20260905162043 88 153 1.0 5.0 0.00 0.00 0.00 51 1014.2
20260905161551 88 212 2.0 5.0 0.00 0.00 0.00 51 1014.3
20260905161045 87 138 2.0 6.0 0.00 0.00 0.00 52 1014.2
20260905160546 87 0 1.0 6.0 0.00 0.00 0.00 54 1014.2
20260905155544 86 212 1.0 6.0 0.00 0.00 0.00 52 1014.4
20260905155043 86 342 2.0 8.0 0.00 0.00 0.00 52 1014.9
20260905154614 85 1 2.0 8.0 0.00 0.00 0.00 53 1015.0
20260905154043 85 257 2.0 7.0 0.00 0.00 0.00 53 1015.1
20260905153545 85 258 1.0 6.0 0.00 0.00 0.00 55 1014.9
20260905153052 85 243 2.0 6.0 0.00 0.00 0.00 54 1014.9
20260905152543 85 15 2.0 6.0 0.00 0.00 0.00 54 1014.9
20260905152047 85 274 2.0 4.0 0.00 0.00 0.00 55 1014.9
20260905151605 84 340 1.0 8.0 0.00 0.00 0.00 55 1014.8
20260905151043 84 88 2.0 8.0 0.00 0.00 0.00 55 1014.9
20260905150542 84 210 3.0 8.0 0.00 0.00 0.00 53 1014.9
20260905150054 84 155 2.0 5.0 0.00 0.00 0.00 57 1014.7
20260905145543 84 98 1.0 6.0 0.00 0.00 0.00 58 1014.7
20260905145042 83 144 1.0 6.0 0.00 0.00 0.00 60 1014.8
20260905144603 83 204 2.0 8.0 0.00 0.00 0.00 60 1014.9
20260905144044 83 0 2.0 8.0 0.00 0.00 0.00 60 1015.0
20260905143544 83 195 1.0 6.0 0.00 0.00 0.00 59 1015.2
20260905143054 82 17 2.0 5.0 0.00 0.00 0.00 60 1015.3
20260905142542 82 34 2.0 9.0 0.00 0.00 0.00 61 1015.4
20260905142128 81 288 2.0 9.0 0.00 0.00 0.00 61 1015.2
20260905141603 81 293 2.0 8.0 0.00 0.00 0.00 62 1015.2
20260905141044 81 120 3.0 8.0 0.00 0.00 0.00 61 1015.1
20260905140545 81 219 2.0 6.0 0.00 0.00 0.00 63 1015.2
20260905140105 81 314 2.0 6.0 0.00 0.00 0.00 63 1015.4
20260905135545 81 25 2.0 8.0 0.00 0.00 0.00 64 1015.4
20260905135042 80 275 2.0 8.0 0.00 0.00 0.00 65 1015.3
20260905134601 80 191 2.0 8.0 0.00 0.00 0.00 67 1015.4
20260905134044 79 274 2.0 8.0 0.00 0.00 0.00 70 1015.5
20260905133546 79 269 2.0 7.0 0.00 0.00 0.00 72 1015.3
20260905133056 78 189 1.0 10.0 0.00 0.00 0.00 74 1015.3
20260905132544 78 321 3.0 10.0 0.00 0.00 0.00 76 1015.2
20260905132044 77 7 2.0 6.0 0.00 0.00 0.00 77 1015.3
20260905131610 77 94 1.0 7.0 0.00 0.00 0.00 78 1015.4
20260905131046 77 39 1.0 10.0 0.00 0.00 0.00 79 1015.4
20260905130544 77 33 3.0 10.0 0.00 0.00 0.00 79 1015.3
20260905125543 77 0 0.0 0.0 0.00 0.00 0.00 85 1015.3
20260905125043 76 0 0.0 0.0 0.00 0.00 0.00 90 1015.3
20260905124601 76 0 0.0 0.0 0.00 0.00 0.00 94 1015.3
20260905124042 75 0 0.0 0.0 0.00 0.00 0.00 96 1015.2
20260905123543 75 0 0.0 0.0 0.00 0.00 0.00 97 1015.0
20260905123101 74 0 0.0 0.0 0.00 0.00 0.00 98 1015.1
20260905122544 74 0 0.0 0.0 0.00 0.00 0.00 98 1015.1
20260905122043 74 0 0.0 0.0 0.00 0.00 0.00 98 1015.0
20260905121600 74 0 0.0 0.0 0.00 0.00 0.00 98 1014.3
20260905121043 73 0 0.0 0.0 0.00 0.00 0.00 98 1014.1
20260905120543 73 0 0.0 0.0 0.00 0.00 0.00 98 1014.1
20260905120104 73 0 0.0 0.0 0.00 0.00 0.00 98 1014.2
20260905115546 73 0 0.0 0.0 0.00 0.00 0.00 98 1014.1
20260905115043 73 0 0.0 0.0 0.00 0.00 0.00 98 1013.9
20260905114602 73 0 0.0 0.0 0.00 0.00 0.00 97 1014.0
20260905114043 73 0 0.0 0.0 0.00 0.00 0.00 97 1013.9
20260905113543 73 0 0.0 0.0 0.00 0.00 0.00 97 1013.9
20260905113058 73 0 0.0 0.0 0.00 0.00 0.00 97 1013.9
20260905112544 73 0 0.0 0.0 0.00 0.00 0.00 97 1013.7
20260905112043 73 0 0.0 0.0 0.00 0.00 0.00 97 1013.7
20260905111642 73 0 0.0 0.0 0.00 0.00 0.00 97 1013.6
20260905111044 74 0 0.0 0.0 0.00 0.00 0.00 97 1013.5
20260905110541 74 0 0.0 0.0 0.00 0.00 0.00 97 1013.4
20260905110051 74 0 0.0 0.0 0.00 0.00 0.00 97 1013.4
20260905105544 74 0 0.0 0.0 0.00 0.00 0.00 97 1013.4
20260905105044 74 0 0.0 0.0 0.00 0.00 0.00 97 1013.5
20260905104605 74 0 0.0 0.0 0.00 0.00 0.00 97 1013.6
20260905104046 74 0 0.0 0.0 0.00 0.00 0.00 97 1013.6
20260905103543 74 0 0.0 0.0 0.00 0.00 0.00 97 1013.6
20260905103105 74 0 0.0 0.0 0.00 0.00 0.00 97 1013.7
20260905102546 74 0 0.0 0.0 0.00 0.00 0.00 97 1013.7
20260905102044 74 0 0.0 0.0 0.00 0.00 0.00 97 1013.7
20260905101606 74 0 0.0 0.0 0.00 0.00 0.00 97 1013.7
20260905101043 74 0 0.0 0.0 0.00 0.00 0.00 97 1013.7
20260905100544 74 0 0.0 0.0 0.00 0.00 0.00 97 1013.7
20260905100100 74 0 0.0 0.0 0.00 0.00 0.00 97 1013.6
20260905095543 74 0 0.0 0.0 0.00 0.00 0.00 97 1013.6
20260905095043 74 0 0.0 0.0 0.00 0.00 0.00 97 1013.6
20260905094607 74 0 0.0 0.0 0.00 0.00 0.00 97 1013.5
20260905094044 74 0 0.0 0.0 0.00 0.00 0.00 97 1013.5
20260905093545 74 0 0.0 0.0 0.00 0.00 0.00 97 1013.4
20260905093107 74 0 0.0 0.0 0.00 0.00 0.00 97 1013.5
20260905092545 74 0 0.0 0.0 0.00 0.00 0.00 97 1013.5
20260905092044 74 0 0.0 0.0 0.00 0.00 0.00 96 1013.4
20260905091559 74 0 0.0 0.0 0.00 0.00 0.00 96 1013.4
20260905091044 75 0 0.0 0.0 0.00 0.00 0.00 96 1013.4
20260905090547 75 0 0.0 0.0 0.00 0.00 0.00 96 1013.4
20260905090105 75 0 0.0 0.0 0.00 0.00 0.00 96 1013.3
20260905085546 75 0 0.0 0.0 0.00 0.00 0.00 96 1013.2
20260905085044 75 0 0.0 0.0 0.00 0.00 0.00 96 1013.2
20260905084559 75 0 0.0 0.0 0.00 0.00 0.00 96 1013.1
20260905084044 75 0 0.0 0.0 0.00 0.00 0.00 96 1013.1
20260905083548 75 0 0.0 0.0 0.00 0.00 0.00 96 1013.0
20260905083103 75 0 0.0 0.0 0.00 0.00 0.00 96 1013.0
20260905082544 75 0 0.0 0.0 0.00 0.00 0.00 96 1012.9
20260905082043 75 0 0.0 0.0 0.00 0.00 0.00 96 1012.9
20260905081601 75 0 0.0 0.0 0.00 0.00 0.00 96 1012.9
20260905081043 75 0 0.0 0.0 0.00 0.00 0.00 96 1012.9
20260905080545 75 0 0.0 0.0 0.00 0.00 0.00 96 1012.9
20260905080129 75 0 0.0 0.0 0.00 0.00 0.00 96 1013.0
20260905075544 75 0 0.0 0.0 0.00 0.00 0.00 95 1012.9
20260905075045 75 0 0.0 0.0 0.00 0.00 0.00 95 1012.9
20260905074554 75 0 0.0 0.0 0.00 0.00 0.00 95 1012.9
20260905074043 75 0 0.0 0.0 0.00 0.00 0.00 95 1012.9
20260905073542 76 0 0.0 0.0 0.00 0.00 0.00 95 1012.8
20260905073056 76 0 0.0 0.0 0.00 0.00 0.00 95 1012.8
20260905072541 76 0 0.0 0.0 0.00 0.00 0.00 95 1012.8
20260905072040 76 0 0.0 0.0 0.00 0.00 0.00 95 1012.8
20260905071600 76 0 0.0 0.0 0.00 0.00 0.00 95 1012.9
20260905071042 76 0 0.0 0.0 0.00 0.00 0.00 94 1013.0
20260905070545 76 0 0.0 0.0 0.00 0.00 0.00 94 1013.1
20260905070101 76 0 0.0 0.0 0.00 0.00 0.00 94 1013.3
20260905065543 76 0 0.0 0.0 0.00 0.00 0.00 94 1013.3
20260905065043 76 0 0.0 0.0 0.00 0.00 0.00 94 1013.5
20260905064557 76 0 0.0 0.0 0.00 0.00 0.00 94 1013.5
20260905064044 76 0 0.0 0.0 0.00 0.00 0.00 94 1013.5
20260905063543 76 0 0.0 0.0 0.00 0.00 0.00 94 1013.6
20260905063103 76 0 0.0 0.0 0.00 0.00 0.00 94 1013.6
20260905062543 76 0 0.0 0.0 0.00 0.00 0.00 94 1013.7
20260905062043 76 0 0.0 0.0 0.00 0.00 0.00 93 1013.6
20260905061604 76 0 0.0 0.0 0.00 0.00 0.00 93 1013.7
20260905061040 76 0 0.0 0.0 0.00 0.00 0.00 93 1013.8
20260905060544 77 0 0.0 0.0 0.00 0.00 0.00 93 1013.8
20260905060058 77 0 0.0 0.0 0.00 0.00 0.00 93 1013.8
20260905055545 77 0 0.0 0.0 0.00 0.00 0.00 93 1013.8
20260905055045 77 0 0.0 0.0 0.00 0.00 0.00 93 1013.8
20260905054555 77 0 0.0 0.0 0.00 0.00 0.00 93 1013.9
20260905054042 77 0 0.0 0.0 0.00 0.00 0.00 92 1013.9
20260905053543 77 0 0.0 0.0 0.00 0.00 0.00 92 1014.0
20260905053111 77 0 0.0 0.0 0.00 0.00 0.00 92 1014.0
20260905052543 77 0 0.0 0.0 0.00 0.00 0.00 92 1013.9
20260905052043 77 0 0.0 0.0 0.00 0.00 0.00 92 1013.9
20260905051552 77 0 0.0 0.0 0.00 0.00 0.00 92 1013.9
20260905051040 77 0 0.0 0.0 0.00 0.00 0.00 92 1014.0
20260905050543 77 0 0.0 0.0 0.00 0.00 0.00 92 1014.0
20260905045539 77 0 0.0 0.0 0.00 0.00 0.00 92 1014.2
20260905045043 77 0 0.0 0.0 0.00 0.00 0.00 92 1014.2
20260905044555 77 0 0.0 0.0 0.00 0.00 0.00 92 1014.2
20260905044043 77 0 0.0 0.0 0.00 0.00 0.00 92 1014.3
20260905043548 78 0 0.0 0.0 0.00 0.00 0.00 92 1014.3
20260905043102 78 0 0.0 0.0 0.00 0.00 0.00 92 1014.2
20260905042545 78 0 0.0 0.0 0.00 0.00 0.00 92 1014.2
20260905042044 78 0 0.0 0.0 0.00 0.00 0.00 91 1014.2
20260905041606 78 0 0.0 0.0 0.00 0.00 0.00 91 1014.2
20260905041043 78 0 0.0 0.0 0.00 0.00 0.00 91 1014.1
20260905040545 78 0 0.0 0.0 0.00 0.00 0.00 91 1014.2
20260905040105 78 0 0.0 0.0 0.00 0.00 0.00 91 1014.2
20260905035547 78 0 0.0 0.0 0.00 0.00 0.00 91 1014.1
20260905035048 78 0 0.0 0.0 0.00 0.00 0.00 91 1014.1
20260905034619 78 0 0.0 0.0 0.00 0.00 0.00 90 1014.2
20260905034046 79 0 0.0 0.0 0.00 0.00 0.00 90 1014.2
20260905033545 79 0 0.0 0.0 0.00 0.00 0.00 90 1014.2
20260905033113 79 0 0.0 0.0 0.00 0.00 0.00 89 1014.2
20260905032542 79 0 0.0 0.0 0.00 0.00 0.00 89 1014.1
20260905032046 79 0 0.0 0.0 0.00 0.00 0.00 89 1014.1
20260905031614 79 0 0.0 0.0 0.00 0.00 0.00 89 1014.3
20260905031043 79 0 0.0 0.0 0.00 0.00 0.00 89 1014.2
20260905030543 79 0 0.0 0.0 0.00 0.00 0.00 88 1014.4
20260905030100 80 0 0.0 0.0 0.00 0.00 0.00 88 1014.2
20260905025541 80 0 0.0 0.0 0.00 0.00 0.00 88 1014.1
20260905025042 80 0 0.0 0.0 0.00 0.00 0.00 88 1014.2
20260905024553 80 0 0.0 0.0 0.00 0.00 0.00 87 1014.1
20260905024043 80 0 0.0 0.0 0.00 0.00 0.00 87 1014.2
20260905023544 80 0 0.0 0.0 0.00 0.00 0.00 86 1014.1
20260905023127 80 0 0.0 0.0 0.00 0.00 0.00 85 1014.2
20260905022544 81 0 0.0 0.0 0.00 0.00 0.00 85 1014.3
20260905022046 81 0 0.0 0.0 0.00 0.00 0.00 84 1014.1
20260905021605 81 0 0.0 0.0 0.00 0.00 0.00 84 1014.1
20260905021042 81 0 0.0 0.0 0.00 0.00 0.00 84 1014.2
20260905020545 82 0 0.0 0.0 0.00 0.00 0.00 83 1014.1
20260905015545 82 0 0.0 0.0 0.00 0.00 0.00 82 1014.1
20260905015045 82 0 0.0 0.0 0.00 0.00 0.00 81 1014.1
20260905014556 82 0 0.0 0.0 0.00 0.00 0.00 79 1014.0
20260905014045 83 0 0.0 0.0 0.00 0.00 0.00 79 1013.9
20260905013545 83 0 0.0 0.0 0.00 0.00 0.00 79 1013.8
20260905013111 83 0 0.0 0.0 0.00 0.00 0.00 78 1013.7
20260905012545 84 0 0.0 0.0 0.00 0.00 0.00 77 1013.6
20260905012044 84 0 0.0 0.0 0.00 0.00 0.00 76 1013.6
20260905011606 84 0 0.0 0.0 0.00 0.00 0.00 76 1013.5
20260905011044 84 0 0.0 0.0 0.00 0.00 0.00 74 1013.5
20260905010546 85 0 0.0 0.0 0.00 0.00 0.00 73 1013.6
20260905010112 85 0 0.0 0.0 0.00 0.00 0.00 72 1013.6
20260905005543 85 0 0.0 0.0 0.00 0.00 0.00 71 1013.6
20260905005045 86 0 0.0 0.0 0.00 0.00 0.00 70 1013.4
20260905004633 86 0 0.0 0.0 0.00 0.00 0.00 69 1013.4
20260905004044 87 0 0.0 0.0 0.00 0.00 0.00 68 1013.3
20260905003544 87 0 0.0 0.0 0.00 0.00 0.00 66 1013.4
20260905003122 88 0 0.0 0.0 0.00 0.00 0.00 64 1013.4
20260905002544 88 0 0.0 0.0 0.00 0.00 0.00 63 1013.3
20260905002043 89 0 0.0 0.0 0.00 0.00 0.00 61 1013.4
20260905001603 89 0 0.0 0.0 0.00 0.00 0.00 59 1013.2
20260905001043 90 0 0.0 0.0 0.00 0.00 0.00 58 1013.3
20260905000542 90 0 0.0 0.0 0.00 0.00 0.00 57 1013.2
20260905000123 91 0 0.0 0.0 0.00 0.00 0.00 55 1013.1
20260904235542 91 0 0.0 0.0 0.00 0.00 0.00 54 1013.1
20260904235042 91 0 0.0 0.0 0.00 0.00 0.00 52 1013.2
20260904234607 92 0 0.0 0.0 0.00 0.00 0.00 51 1013.1
20260904234044 92 0 0.0 0.0 0.00 0.00 0.00 50 1013.1
20260904233546 92 0 0.0 0.0 0.00 0.00 0.00 49 1013.2
20260904233105 92 0 0.0 0.0 0.00 0.00 0.00 48 1013.1
20260904232544 92 0 0.0 0.0 0.00 0.00 0.00 47 1013.2
20260904232046 93 0 0.0 0.0 0.00 0.00 0.00 47 1013.1
20260904231604 93 0 0.0 0.0 0.00 0.00 0.00 47 1012.9
20260904231043 94 0 0.0 0.0 0.00 0.00 0.00 46 1013.0
20260904230543 94 0 0.0 0.0 0.00 0.00 0.00 46 1013.1
20260904230114 95 0 0.0 0.0 0.00 0.00 0.00 44 1013.1
20260904225542 96 0 0.0 0.0 0.00 0.00 0.00 43 1013.1
20260904225044 96 0 0.0 0.0 0.00 0.00 0.00 42 1013.2
20260904224555 96 0 0.0 0.0 0.00 0.00 0.00 42 1013.2
20260904224044 96 0 0.0 0.0 0.00 0.00 0.00 42 1013.3
20260904223544 97 0 0.0 0.0 0.00 0.00 0.00 42 1013.2
20260904223107 97 0 0.0 0.0 0.00 0.00 0.00 41 1013.2
20260904222546 98 0 0.0 0.0 0.00 0.00 0.00 39 1013.3
20260904222043 98 0 0.0 0.0 0.00 0.00 0.00 39 1013.1
20260904221553 98 0 0.0 0.0 0.00 0.00 0.00 39 1013.1
20260904221045 98 0 0.0 0.0 0.00 0.00 0.00 41 1013.1
20260904220544 98 0 0.0 0.0 0.00 0.00 0.00 38 1013.0
20260904220107 98 0 0.0 0.0 0.00 0.00 0.00 41 1013.1
20260904215543 98 0 0.0 0.0 0.00 0.00 0.00 38 1013.2
20260904215042 98 0 0.0 0.0 0.00 0.00 0.00 38 1013.2
20260904214607 98 0 0.0 0.0 0.00 0.00 0.00 38 1013.3
20260904214042 98 0 0.0 0.0 0.00 0.00 0.00 40 1013.4
20260904213544 99 0 0.0 4.0 0.00 0.00 0.00 36 1013.5
20260904213108 99 0 0.0 4.0 0.00 0.00 0.00 39 1013.5
20260904212545 99 0 0.0 0.0 0.00 0.00 0.00 39 1013.4
20260904212042 99 0 0.0 0.0 0.00 0.00 0.00 39 1013.5
20260904211603 99 0 0.0 0.0 0.00 0.00 0.00 37 1013.7
20260904211043 99 0 0.0 0.0 0.00 0.00 0.00 39 1013.7
20260904210542 99 0 0.0 0.0 0.00 0.00 0.00 38 1013.7
20260904210052 99 0 0.0 0.0 0.00 0.00 0.00 39 1013.8
20260904205544 99 0 0.0 3.0 0.00 0.00 0.00 40 1013.8
20260904205044 99 0 0.0 3.0 0.00 0.00 0.00 38 1013.8
20260904204601 99 0 1.0 3.0 0.00 0.00 0.00 41 1013.8
20260904204045 99 274 0.0 3.0 0.00 0.00 0.00 39 1013.9
20260904203543 99 0 0.0 4.0 0.00 0.00 0.00 38 1013.9
20260904203057 99 0 0.0 4.0 0.00 0.00 0.00 37 1014.0
20260904202544 99 45 0.0 3.0 0.00 0.00 0.00 41 1014.1
20260904202046 99 0 0.0 3.0 0.00 0.00 0.00 39 1014.1
20260904201607 99 0 0.0 3.0 0.00 0.00 0.00 40 1014.1
20260904201042 99 0 0.0 3.0 0.00 0.00 0.00 39 1014.2
20260904200542 99 0 0.0 3.0 0.00 0.00 0.00 39 1014.3
20260904200107 99 0 0.0 3.0 0.00 0.00 0.00 38 1014.3
20260904195542 99 0 0.0 3.0 0.00 0.00 0.00 40 1014.4
20260904195047 99 201 0.0 4.0 0.00 0.00 0.00 41 1014.5
20260904194603 98 0 0.0 4.0 0.00 0.00 0.00 40 1014.6
20260904194046 99 236 0.0 4.0 0.00 0.00 0.00 39 1014.7
20260904193542 98 236 0.0 4.0 0.00 0.00 0.00 39 1014.7
20260904193056 99 270 1.0 4.0 0.00 0.00 0.00 38 1015.0
20260904192541 99 0 0.0 4.0 0.00 0.00 0.00 42 1015.1
20260904192121 99 265 0.0 5.0 0.00 0.00 0.00 42 1015.1
20260904191552 98 28 1.0 5.0 0.00 0.00 0.00 42 1015.1
20260904191045 98 310 1.0 5.0 0.00 0.00 0.00 41 1015.2
20260904190546 98 0 0.0 0.0 0.00 0.00 0.00 41 1015.2
20260904185544 99 0 0.0 0.0 0.00 0.00 0.00 41 1015.5
20260904185046 99 0 0.0 0.0 0.00 0.00 0.00 44 1015.5
20260904184604 98 0 0.0 0.0 0.00 0.00 0.00 45 1015.5
20260904184042 98 0 0.0 0.0 0.00 0.00 0.00 43 1015.6
20260904183544 98 0 0.0 0.0 0.00 0.00 0.00 41 1015.6
20260904183117 98 0 0.0 0.0 0.00 0.00 0.00 40 1015.6
20260904182544 98 0 0.0 0.0 0.00 0.00 0.00 38 1015.7
20260904182043 98 0 0.0 0.0 0.00 0.00 0.00 43 1015.8
20260904181604 98 0 0.0 0.0 0.00 0.00 0.00 44 1015.8
20260904181043 98 0 0.0 0.0 0.00 0.00 0.00 45 1015.8
20260904180543 97 0 0.0 0.0 0.00 0.00 0.00 41 1015.9
20260904180100 97 0 0.0 0.0 0.00 0.00 0.00 46 1016.0
20260904175543 97 0 0.0 0.0 0.00 0.00 0.00 43 1016.2
20260904175044 97 0 0.0 0.0 0.00 0.00 0.00 42 1016.1
20260904174553 97 0 0.0 0.0 0.00 0.00 0.00 43 1016.2
20260904174042 96 0 0.0 0.0 0.00 0.00 0.00 45 1016.3
20260904173543 96 0 0.0 0.0 0.00 0.00 0.00 45 1016.3
20260904173055 97 0 0.0 0.0 0.00 0.00 0.00 46 1016.3
20260904172545 96 0 0.0 0.0 0.00 0.00 0.00 47 1016.2
20260904172043 96 0 0.0 0.0 0.00 0.00 0.00 45 1016.5
20260904171615 96 0 0.0 0.0 0.00 0.00 0.00 45 1016.5
20260904171042 96 0 0.0 0.0 0.00 0.00 0.00 49 1016.5
20260904170542 95 0 0.0 0.0 0.00 0.00 0.00 50 1016.4
20260904170057 95 0 0.0 0.0 0.00 0.00 0.00 50 1016.4
20260904165543 95 0 0.0 0.0 0.00 0.00 0.00 47 1016.5
20260904165045 95 0 0.0 0.0 0.00 0.00 0.00 46 1016.6
20260904164634 95 0 0.0 0.0 0.00 0.00 0.00 48 1016.6
20260904164041 95 0 0.0 0.0 0.00 0.00 0.00 46 1016.5
20260904163544 95 0 0.0 0.0 0.00 0.00 0.00 50 1016.5